Tracking 18942 objects as of 18-Jan-2018
HD Live streaming from Space Station
objects crossing your sky now

FENGYUN 1C DEB

Track FENGYUN 1C DEB now!
10-day predictions


NORAD ID: 31432
Int'l Code: 1999-025BTU
Perigee: 415.0 km
Apogee: 530.4 km
Inclination: 99.0 °
Period: 93.9 minutes
Semi major axis: 6843 km
RCS: 0.0019 m2 (small)
Launch date: May 10, 1999
Source: People's Republic of China (PRC)
Launch site: Taiyaun Space Center, China (TSC)

Note: This is SATELLITE DEBRIS
aabbcc
Your satellite tracking list
Your tracking list is empty




NASA's NSSDC Master Catalog

Two Line Element Set (TLE):
1 31432U 99025BTU 18017.60105027  .00006248  00000-0  17590-3 0  9991
2 31432  99.0430 256.5951 0084340 154.2075 206.3405 15.33431857581381
Source of the keplerian elements: AFSPC